Погода в Смирновке

Россия / Омская область     55°28′44″N   74°50′06″E
темп.,
°C
ветер,
м/с
пор.,
м/с
влажн.,
%
обл.,
%
осадки,
мм/ч
давл.,
гПа
погр.,
м
9 мая, вс
вс900:00+15ссз22465 0.0 101816
03:00+12всв48645 0.0 1017134
06:00+10в410685 0.0 1018183
09:00+15всв68435 0.0 1018457
12:00+18всв673995 0.0 1018969
15:00+19всв773499 0.0 10181471
18:00+17всв7836100 0.0 10181498
21:00+13всв71239100 0.0 1020680
10 мая, пн
пн1000:00+11всв71343100 0.0 1020825
03:00+10всв71445100 0.0 1020802
06:00+8всв61354100 0.0 1022672
09:00+10в81144100 0.0 10231055
12:00+14всв8103659 0.0 10231469
15:00+16всв893270 0.0 10221807
18:00+16всв78325 0.0 10221841
21:00+11ссв48475 0.0 1023140
11 мая, вт
вт1100:00+9св49565 0.0 1023156
03:00+7ссв37640 0.0 1024116
06:00+6ссв487324 0.0 1025197
09:00+11св56495 0.0 1025789
12:00+15св573627 0.0 10251792
15:00+17ссв57325 0.0 10242037
18:00+17ссв56315 0.0 10242103
21:00+12ссз46470 0.0 102578
12 мая, ср
ср1200:00+10с33470 0.0 102530
03:00+8ссз225052 0.0 102516
06:00+8сз225495 0.0 102520
09:00+15зсз343698 0.0 1024400
12:00+20зсз4531100 0.0 10221287
15:00+20сз7734100 0.0 10212314
18:00+18сз6853100 0.2 10211195
21:00+11ссз3780100 2.4 1022467
13 мая, чт
чт1300:00+10сз4107884 2.4 1022322
03:00+8с5107519 0.0 1023220
06:00+7с49845 0.0 1024241
09:00+12с465420 0.0 1024820
12:00+15ссз453771 0.0 10231323
15:00+18сз573115 0.0 10211698
18:00+19сз684031 0.0 10201768
21:00+15з41063100 0.0 1019238